Weather in Olenevka

Russia / Penza Oblast     52°58′47″N   44°53′05″E
temp.,
°C
wind,
m/s
gust,
m/s
humid.,
%
clouds,
%
prec.,
mm/h
press.,
hPa
HPBL,
m
15 may, sat
sat1500:00+17se4157789 0.0 1016270
03:00+17sse5165951 0.0 1016357
06:00+17sse6166128 0.0 1016360
09:00+22s71653100 0.0 1016688
12:00+25sse71349100 0.0 10161070
15:00+26sse714485 0.0 10161485
18:00+23sse613595 0.0 1015401
21:00+18sse4136480 0.0 1015195
16 may, sun
sun1600:00+16s366178 0.0 101585
03:00+15s346486 0.0 101547
06:00+16s24705 0.0 1016109
09:00+22s355561 0.0 1016400
12:00+25s6943100 0.0 1017905
15:00+25s5946100 0.0 10161557
18:00+23ssw2260100 0.0 101538
21:00+18s226631 0.0 101611
17 may, mon
mon1700:00+17ese2268100 0.0 101611
03:00+16ese226592 0.0 101613
06:00+17se236799 0.0 101758
09:00+23sse5115056 0.0 1017529
12:00+26sse6938100 0.0 10171161
15:00+27se584779 0.0 10161092
18:00+24se366114 0.0 1015129
21:00+19se3560100 0.0 101666
18 may, tue
tue1800:00+17ese3656100 0.0 101676
03:00+16ese41253100 0.0 1015188
06:00+16se41264100 0.0 1015211
09:00+22se51053100 0.0 1014353
12:00+26se6942100 0.0 1013670
15:00+28se6114513 0.0 10121362
18:00+24se375819 0.0 1012147
21:00+21ese51647100 0.0 1011284
19 may, wed
wed1900:00+21se6184096 0.0 1011443
03:00+18se6164649 0.0 1010336
06:00+17sse4126663 0.0 1010334
09:00+21sse4657100 0.0 1010423
12:00+23s51552100 0.0 10101842
15:00+22s7106555 0.9 10101078
18:00+19sw6107316 1.3 1011812
21:00+15sw3989100 1.3 1012280